Погода в Цимлянске

Погода в Цимлянске : погода сейчас, прогноз погоды и архив. Всё, что Вы хотите узнать о погоде в Цимлянске!

Хотите узнать прогноз погоды в Цимлянске? Тогда Вам сюда: Погода в Цимлянске

Поиск расширенной информации на нашем сайте:

Другие новости

Новости СМИ2

Главная страница сайта

Новости сайта

03.07.2017

Напоминаем, что на нашем специализированном сайте Метеоцентр.Азия вы можете получить высокодетализированные автоматические прогнозы погоды по пунктам России, СНГ и мира в авиационном формате (включающие направление и скорость ветра, видимость, явления погоды, количество и форму облачности, нижнюю и верхнюю границу облачности).

Рекомендуем: Подробности сканер штрих кода у нас.

Погода в Цимлянске - сегодня

Время (UTC), дата Ветер
(°,м/с) 
Видим.   Явления Облачность Т
(°С)
Тd
(°С)
f(%) Тe
(°С)
Pmin
(гПа)
dP
(гПа)
Po
(мм)
O2
(г/м3)
Тmin Tmax R s Состояние
почвы
21 14.02.18 100 (В) 4000 м  слаб. снег  10/10 300 м 
[Ns]
-3 -4.2 91 -6  1028  -0.2  765  312           
00 15.02.18 100 (В) 20000 м  {снег}  10/10 300 м 
[St]
-2.7 -4.6 87 -6  1028.8  0.8  765  312           
03 15.02.18 090 (В) 20000 м    10/10 300 м 
[St]
-2.9 -4.5 89 -6  1030.1  1.3  766  313  -3.3    0.2  неравномерный
сухой снег
100% 
06 15.02.18 090 (В) 20000 м    10/10 300 м 
[St]
-2.6 -4.7 85 -6  1030.1  1.1  767  313           
09 15.02.18 090 (В) 20000 м    10/10 300 м 
[St]
-2 -4.9 80 -5  1032.5  1.2  768  312           
12 15.02.18 110 (В) 20000 м    10/10 300 м 
[St]
-1.4 -4.1 82 -4  1032.3  -0.1  768  311           
15 15.02.18 100 (В) 20000 м    10/10 300 м 
[St]
-1.4 -4.2 81 -4  1032.4  -0.1  768  312    -1.2       
18 15.02.18 100 (В) 6-10{10}  20000 м    10/10 300 м 
[St]
-2 -6.1 73 -6  1033.4  769  313           
21 15.02.18 100 (В) 5{10}  20000 м    8/0 средняя 
[Ac trans]
-2.5 -6.6 73 -6  1033.5  769  313           
00 16.02.18 100 (В) 5{10}  20000 м    8/0 средняя 
[Ac trans]
-4.1 -7.6 77 -8  1033.1  -0.4  768  315           
03 16.02.18 100 (В) 20000 м    10/6 600 м средняя 
[Sc|Ac und]
-5.9 -8.3 83 -10  1033.6  0.4  769  317  -6.3      неравномерный
сухой снег
100% 
06 16.02.18 100 (В) 5{11}  20000 м    9/9 600 м 
[Sc]
-5.8 -8.4 82 -10  1034.1  0.5  769  318           
09 16.02.18 070 (В) 4{10}  20000 м    6/4 600 м средняя 
[Sc|Ac trans]
-3.5 -7.1 76 -6  1033.4  -0.5  769  315           
12 16.02.18 080 (В) 4{10}  20000 м    10/10 600 м 
[Sc]
-1.3 -5.3 74 -4  1032.3  -1  768  311           
15 16.02.18 080 (В) 20000 м    10/10 600 м 
[Sc]
+0 -4.5 72 -2  1031.5  -0.8  767  310    +0       
18 16.02.18 090 (В) 20000 м    10/10 600 м 
[Sc]
+0 -5.1 68 -3  1031  -0.5  767  310           
21 16.02.18 100 (В) 6-10{11}  20000 м    10/10 600 м 
[Sc]
-1.1 -6.2 68 -5  1030.3  -0.7  766  311           
00 17.02.18 090 (В) 6{11}  20000 м    10/10 600 м 
[Sc]
-2 -5.3 78 -6  1029.2  -1.1  766  311           
03 17.02.18 090 (В) 10 км  слаб. снег  10/10 300 м 
[Ns]
-2.6 -5 84 -6  1028.7  -0.5  765  312  -2.8    0.0     
06 17.02.18 090 (В) 20000 м  {снег}  10/10 300 м 
[St]
-2.4 -5.5 79 -6  1028.1  -0.6  765  311           
09 17.02.18 100 (В) 4{10}  20000 м    10/10 600 м 
[Sc]
-1.2 -4.8 76 -4  1026.9  -1.2  764  310           
12 17.02.18 080 (В) 20000 м    10/10 300 м 
[St]
-0.2 -3.5 78 -3  1024.8  -2.1  762  308           
15 17.02.18 100 (В) 20000 м    10/10 300 м 
[St]
+0.4 -4.7 69 -3  1024.3  -0.5  762  307    +0.4  0.0     
18 17.02.18 110 (В) 20000 м    10/10 300 м 
[St]
-0.2 -4.4 73 -3  1023.9  -0.4  762  308           
21 17.02.18 120 (ЮВ) 20000 м    10/10 300 м 
[St]
-0.2 -2 88 -3  1022.6  -1.3  761  307           
Время (UTC), дата Ветер
(°,м/с) 
Видим.   Явления Облачность Т
(°С)
Тd
(°С)
f(%) Тe
(°С)
Pmin
(гПа)
dP
(гПа)
Po
(мм)
O2
(г/м3)
Тmin Tmax R s Состояние
почвы

Для получения пояснительной информации подведите курсор к названию столбца.

ПОГОДА в Цимлянске - архив

Всё, что Вы хотите узнать о погоде в Цимлянске - удобно и подробно!

Выберите нужную дату (начиная с 1 января 2015* года) и нажмите кнопку "Найти".
Будут отображены архивные сводки погоды по пункту Цимлянск, начиная с указанной даты.


Отображать данные в формате CSV (для использования в таблицах Excel)


Внимание! Наш архив погоды предназначен исключительно для личного некоммерческого использования в познавательных целях. Если Вам необходимы официальные справки о состоянии погоды (для производственных, юридических, коммерческих и т.п. целей), обращайтесь в органы Росгидромета.

*Примечание: данная дата относится к архиву по метеостанциям СССР (Россия, СНГ, Балтия).
Архив по метеостанциям Зарубежной Европы и Азии (кроме Китая) хранится 10 дней, по другим регионам земного шара (Китай, Африка, Америка, Австралия, Океания) - 1 день.

Цимлянск - район местоположения метеостанции


Название, широта, долгота, высота метеостанции:
Цимлянск 47.6°ш. 42.1°д. 65 м над ур. моря [Российская Федерация]

Дополнительная информация

В oтличие oт бoльшинства пoгoдных сайтoв мы публикуем пoдрoбную метеoинфoрмацию в детальнoм прoфессиoнальнoм фoрмате.

Характеристики температуры и влажнoсти вoздуха измеряются на высoте 2 м в тени вдали oт зданий и деревьев.
Скoрoсть ветра измеряется на высoте 10 м (на урoвне рoста челoвека скoрoсть ветра ниже в 1.5-2 раза). Если метеoстанция нахoдится в гoрoде или в лесу, тo скoрoсть ветра занижена на 2-4 м/с пo сравнению с oткрытым местoм. Скoрoсть ветра над акватoриями крупных рек и oзёр, а также на вершинах хoлмoв на 2-5 м/с выше, чем в oбычных услoвиях.
Атмoсфернoе давление в разных тoчках местнoсти мoжет значительнo oтличаться oт давления на метеoстанции, в зависимoсти oт услoвий рельефа (при пoдъёме на 10 м давление пoнижается примернo на 1 мм рт.ст.).